Regional Weather Roundup
Issued by NWS Cleveland, OH

Home | Current Version | Previous Version | Graphics & Text | Print | Product List | Glossary On
Versions: 1 2 3 4 5 6 7 8 9 10 11 12 13 14 15 16 17 18 19 20 21 22 23 24 25 26 27 28 29 30 31 32 33 34 35 36 37 38 39 40 41 42 43 44 45 46 47 48 49 50
000
ASUS41 KCLE 230400
RWRCLE
OHIO REGIONAL WEATHER ROUNDUP
NATIONAL WEATHER SERVICE WILMINGTON, OH
1200 AM EDT WED APR 23 2014

NOTE: "FAIR" INDICATES FEW OR NO CLOUDS BELOW 12,000 FEET WITH NO
SIGNIFICANT WEATHER AND/OR OBSTRUCTIONS TO VISIBILITY.

OHZ001>008-015>018-024>027-034-035-043-044-230500-
   NORTHWEST OHIO

CITY           SKY/WX    TMP DP  RH WIND       PRES   REMARKS
DEFIANCE       CLEAR     41  29  62 NW3       29.97S
FINDLAY        PTCLDY    42  30  62 NW10      29.93F
TOLEDO EXPRESS CLEAR     42  29  59 NW7       29.95R
TOLEDO METCALF PTCLDY    44  28  53 NW12      29.95S
LIMA           CLEAR     43  30  60 NW13      29.95S
$$

OHZ009>014-019>023-028>033-038-089-230500-
   NORTHEAST OHIO

CITY           SKY/WX    TMP DP  RH WIND       PRES   REMARKS
CLE-HOPKINS    CLOUDY    44  35  70 N14       29.92S
CLE-LAKEFRONT  CLOUDY    42  36  79 NW10      29.89R
CUY CO. ARPT   NOT AVBL
LORAIN-ELYRIA  CLOUDY    46  32  58 N16G23    29.90S
ASHTABULA      CLOUDY    38  33  82 NW9       29.86S
AKRON-CANTON   CLOUDY    45  35  68 NW14      29.87R
WOOSTER        NOT AVBL
MANSFIELD      CLOUDY    43  31  62 NW15G23   29.90R
YOUNGSTOWN     LGT RAIN  40  36  86 NW16G22   29.84S
$$

OHZ042-051>053-060>062-070>072-077>081-230500-
  SOUTHWEST OHIO

CITY           SKY/WX    TMP DP  RH WIND       PRES   REMARKS
CINC-COVINGTON CLEAR     47  30  51 N10       29.98R
CINC-LUNKEN    CLEAR     48  30  49 N10       29.99S
HAMILTON       CLEAR     46  31  55 NW7       29.99S
DAYTON         NOT AVBL
WRIGHT-PAT AFB CLEAR     45  30  55 NW9       29.96R
DAYTON GENERAL CLEAR     46  31  55 N9        29.96S
WILMINGTON     CLEAR     45  29  53 N12       29.95S
$$

OHZ036-037-039>041-045>050-054>059-063>069-073>076-082>088-230500-
  CENTRAL AND SOUTHEAST OHIO

CITY           SKY/WX    TMP DP  RH WIND       PRES   REMARKS
COLUMBUS       PTCLDY    50  32  50 NW15      29.90S
OSU AIRPORT    MOCLDY    46  32  58 NW15      29.92R
BOLTON FIELD   NOT AVBL
RICKENBACK AFB NOT AVBL
NEWARK         MOCLDY    49  33  54 NW14      29.89R
MARION         CLEAR     43  31  62 NW13      29.92S
LANCASTER      PTCLDY    48  33  56 NW12      29.90S
ZANESVILLE     MOCLDY    50  33  52 N10       29.87R
NEW PHILLY     MOCLDY    47  32  56 NW15G22   29.88R
$$



USA.gov is the U.S. government's official web portal to all federal, state and local government web resources and services.